Location: Arcones
(41.1182°N, 3.7238°W)
Time: 23:20:47
(UTC+00:00)

IRIDIUM 106 - Pass Details

Date: 18 March 2026
Orbit: 776 x 780 km, 86.4° (Epoch: 13 April)

Event Time Altitude Azimuth Distance (km) Brightness Sun altitude
Exits shadow 19:47:10 13° 56° (NE) 2,109 6.2 -16.2°
Drops below altitude 10° 19:48:24 10° 43° (NE) 2,337 6.5 -16.4°
Sets 19:51:40 0° 22° (NNE) 3,270 7.5 -17.0°
